Tiree, United Kingdom

2:42 AM BST on August 24, 2016 (GMT +0100)
Tiree

Weather History for EGPU - March, 2013

Change the Weather History Date:

Saturday, March 2, 2013

  Actual Average Record
Temperature  
Mean Temperature 46 °F -  
Max Temperature 52 °F 47 °F 52 °F (2013)
Min Temperature 41 °F 38 °F 33 °F (2001)
Degree Days  
Heating Degree Days 18    
Moisture  
Dew Point 44 °F    
Average Humidity 94    
Maximum Humidity 100    
Minimum Humidity 76    
Precipitation  
Precipitation 0.00 in 0.12 in - ()
Sea Level Pressure  
Sea Level Pressure 30.33 in    
Wind  
Wind Speed 7 mph ()    
Max Wind Speed 13 mph    
Max Gust Speed -    
Visibility 6.2 miles    
Events Fog    
Averages and records for this station are not official NWS values.
T = Trace of Precipitation, MM = Missing Value Source: Averaged Metar Reports

Daily Weather History Graph

Daily Weather History Graph

Search for Another Location

Airport or City:

Trip Planner

Search our weather history database for the weather conditions in past years. The results will help you decide how hot, cold, wet, or windy it might be!

Date:

Astronomy

Mar. 02, 2013 Rise Set
Actual Time 7:16 AM GMT 6:03 PM GMT
Civil Twilight 6:39 AM GMT 6:41 PM GMT
Nautical Twilight 5:55 AM GMT 7:24 PM GMT
Astronomical Twilight 5:11 AM GMT 8:09 PM GMT
Moon No Moon Rise 8:31 AM GMT (3/2)
Length of Visible Light 12h 02m
Length of Day
10h 46m
Waning Gibbous, 76% of the Moon is Illuminated
Mar 2
Waning Gibbous
Mar 4
Last Quarter
Mar 11
New
Mar 19
First Quarter
Mar 27
Full

Hourly Weather History & Observations

Time (GMT) Temp. Windchill Dew Point Humidity Pressure Visibility Wind Dir Wind Speed Gust Speed Precip Events Conditions
12:20 AM 44.6 °F 41.4 °F 42.8 °F 93% 30.45 in 6.2 mi West 5.8 mph - N/A   Overcast
12:50 AM 44.6 °F 41.4 °F 42.8 °F 93% 30.42 in 6.2 mi WSW 5.8 mph - N/A   Mostly Cloudy
1:20 AM 44.6 °F 40.2 °F 42.8 °F 93% 30.42 in - West 8.1 mph - N/A   Mostly Cloudy
1:50 AM 44.6 °F 40.2 °F 42.8 °F 93% 30.42 in 6.2 mi West 8.1 mph - N/A   Mostly Cloudy
2:20 AM 44.6 °F 40.2 °F 42.8 °F 93% 30.39 in 6.2 mi West 8.1 mph - N/A   Overcast
2:50 AM 44 °F - 42 °F 91% 30.41 in 22 mi West 5.8 mph - -   Mostly Cloudy
2:50 AM 44.6 °F 41.4 °F 42.8 °F 93% 30.39 in 6.2 mi West 5.8 mph - N/A   Mostly Cloudy
3:20 AM 42.8 °F 38.0 °F 41.0 °F 93% 30.39 in 6.2 mi West 8.1 mph - N/A   Mostly Cloudy
3:50 AM 44.6 °F 39.7 °F 42.8 °F 93% 30.39 in 6.2 mi West 9.2 mph - N/A   Scattered Clouds
4:20 AM 44.6 °F 40.2 °F 42.8 °F 93% 30.36 in 6.2 mi West 8.1 mph - N/A   Mostly Cloudy
4:50 AM 44.6 °F 41.4 °F 42.8 °F 93% 30.36 in 6.2 mi West 5.8 mph - N/A   Mostly Cloudy
5:20 AM 44.6 °F 39.7 °F 42.8 °F 93% 30.36 in 6.2 mi West 9.2 mph - N/A   Scattered Clouds
5:50 AM 45 °F - 44 °F 95% 30.38 in 2 mi WNW 11.5 mph - -   Mist
5:50 AM 44.6 °F 38.8 °F 44.6 °F 100% 30.36 in - WNW 11.5 mph - N/A   Mostly Cloudy
6:20 AM 44.6 °F 39.7 °F 44.6 °F 100% 30.36 in 6.2 mi WNW 9.2 mph - N/A   Mostly Cloudy
6:50 AM 44.6 °F 41.4 °F 42.8 °F 93% 30.36 in 6.2 mi NW 5.8 mph - N/A   Scattered Clouds
7:20 AM 44.6 °F 39.7 °F 42.8 °F 93% 30.36 in 6.2 mi NW 9.2 mph - N/A   Mostly Cloudy
7:50 AM 44.6 °F 39.7 °F 44.6 °F 100% 30.36 in 6.2 mi NW 9.2 mph - N/A   Mostly Cloudy
8:20 AM 44.6 °F 40.2 °F 44.6 °F 100% 30.36 in 6.2 mi WNW 8.1 mph - N/A   Mostly Cloudy
8:50 AM 45 °F - 45 °F 99% 30.36 in 11 mi WNW 10.4 mph - -   Scattered Clouds
8:50 AM 44.6 °F 39.2 °F 44.6 °F 100% 30.36 in 6.2 mi WNW 10.4 mph - N/A   Mostly Cloudy
9:20 AM 44.6 °F 39.2 °F 44.6 °F 100% 30.33 in 0.6 mi WNW 10.4 mph - N/A Fog Fog
9:50 AM 46.4 °F 41.9 °F 46.4 °F 100% 30.33 in 3.1 mi WNW 9.2 mph - N/A   Mostly Cloudy
10:20 AM 46.4 °F 41.5 °F 46.4 °F 100% 30.33 in 2.8 mi NW 10.4 mph - N/A   Mostly Cloudy
10:50 AM 46.4 °F 41.5 °F 46.4 °F 100% 30.33 in 6.2 mi NW 10.4 mph - N/A   Mostly Cloudy
11:20 AM 48.2 °F - 48.2 °F 100% 30.33 in 6.2 mi NW 10.4 mph - N/A   Mostly Cloudy
11:50 AM 49 °F - 48 °F 96% 30.35 in 15 mi NW 10.4 mph - -   Scattered Clouds
11:50 AM 50.0 °F - 48.2 °F 94% 30.33 in 6.2 mi NW 10.4 mph - N/A   Partly Cloudy
12:20 PM 50.0 °F - 46.4 °F 87% 30.33 in 6.2 mi NNW 10.4 mph - N/A   Partly Cloudy
12:50 PM 50.0 °F - 46.4 °F 87% 30.33 in 6.2 mi NNW 10.4 mph - N/A   Partly Cloudy
1:20 PM 50.0 °F - 44.6 °F 82% 30.33 in 6.2 mi NW 11.5 mph - N/A   Partly Cloudy
1:50 PM 50.0 °F - 44.6 °F 82% 30.33 in 6.2 mi NW 10.4 mph - N/A   Partly Cloudy
2:20 PM 50.0 °F - 42.8 °F 76% 30.30 in 6.2 mi NNW 12.7 mph - N/A   Mostly Cloudy
2:50 PM 48 °F - 46 °F 88% 30.32 in 4 mi North 11.5 mph - -   Light Haze
2:50 PM 48.2 °F - 46.4 °F 93% 30.30 in 4.3 mi North 11.5 mph - N/A   Mostly Cloudy
3:20 PM 48.2 °F - 44.6 °F 87% 30.30 in 6.2 mi NNW 6.9 mph - N/A   Mostly Cloudy
3:50 PM 48.2 °F - 44.6 °F 87% 30.30 in 6.2 mi NW 8.1 mph - N/A   Mostly Cloudy
4:20 PM 48.2 °F - 44.6 °F 87% 30.30 in 6.2 mi NW 8.1 mph - N/A   Mostly Cloudy
4:50 PM 46.4 °F 42.9 °F 44.6 °F 93% 30.30 in 6.2 mi NW 6.9 mph - N/A   Mostly Cloudy
5:20 PM 46.4 °F 44.3 °F 44.6 °F 93% 30.30 in 6.2 mi NW 4.6 mph - N/A   Unknown
5:50 PM 47 °F - 44 °F 86% 30.30 in 9 mi NW 6.9 mph - -   Mostly Cloudy
5:50 PM 46.4 °F 42.9 °F 44.6 °F 93% 30.27 in 6.2 mi NW 6.9 mph - N/A   Mostly Cloudy
6:20 PM 46.4 °F 43.5 °F 44.6 °F 93% 30.27 in 6.2 mi NW 5.8 mph - N/A   Scattered Clouds
6:50 PM 46.4 °F 43.5 °F 44.6 °F 93% 30.30 in 6.2 mi NW 5.8 mph - N/A   Mostly Cloudy
7:20 PM 46.4 °F 45.2 °F 44.6 °F 93% 30.30 in 6.2 mi NW 3.5 mph - N/A   Mostly Cloudy
7:50 PM 44.6 °F 43.1 °F 42.8 °F 93% 30.30 in 6.2 mi NW 3.5 mph - N/A   Mostly Cloudy
8:20 PM 42.8 °F 41.1 °F 41.0 °F 93% 30.27 in 3.7 mi West 3.5 mph - N/A   Mostly Cloudy
8:50 PM 44 °F - 43 °F 94% 30.30 in 5 mi WSW 3.5 mph - -   Mist
8:50 PM 44.6 °F 43.1 °F 42.8 °F 93% 30.30 in 4.3 mi WSW 3.5 mph - N/A   Mostly Cloudy
9:20 PM 44.6 °F 42.2 °F 42.8 °F 93% 30.30 in 4.3 mi West 4.6 mph - N/A   Mostly Cloudy
9:50 PM 42.8 °F 39.3 °F 41.0 °F 93% 30.27 in - West 5.8 mph - N/A   Mostly Cloudy
10:20 PM 42.8 °F 39.3 °F 42.8 °F 100% 30.27 in 5.6 mi West 5.8 mph - N/A   Mostly Cloudy
10:50 PM 42.8 °F 38.6 °F 42.8 °F 100% 30.27 in 6.2 mi WNW 6.9 mph - N/A   Mostly Cloudy
11:20 PM 41.0 °F 36.4 °F 41.0 °F 100% 30.27 in 6.2 mi West 6.9 mph - N/A   Overcast
11:50 PM 43 °F - 42 °F 96% 30.28 in 16 mi WSW 5.8 mph - -   Mostly Cloudy
11:50 PM 42.8 °F 39.3 °F 42.8 °F 100% 30.27 in 6.2 mi WSW 5.8 mph - N/A   Mostly Cloudy